Terminal Aerodrome Forecast
Issued by NWS

Home | Current Version | Previous Version | Graphics & Text | Print | Product List | Glossary On
Versions: 1 2 3 4 5 6 7 8 9 10 11 12 13 14 15 16 17 18 19 20
000
FTUS43 KBIS 171300 AAA
TAFDIK
TAF AMD
KDIK 171308Z 1713/1812 15012KT P6SM OVC007
     FM180100 15010KT P6SM VCSH OVC012=

USA.gov is the U.S. government's official web portal to all federal, state and local government web resources and services.